Albany, NY

11:45 AM EST on November 18, 2019 (GMT -0500)
Albany International

Weather History for KALB - September, 2019

Change the Weather History Date:

Monday, September 30, 2019

  Actual Average Record
Temperature  
Mean Temperature 59 °F 56 °F  
Max Temperature 68 °F 66 °F 88 °F (1905)
Min Temperature 50 °F 45 °F 28 °F (1991)
Degree Days  
Heating Degree Days 6 10  
Month to date heating degree days 75 143  
Since 1 July heating degree days 77 167  
Cooling Degree Days 0 1  
Month to date cooling degree days 44 51  
Year to date cooling degree days 767 594  
Growing Degree Days 8 (Base 50)    
Moisture  
Dew Point 45 °F    
Average Humidity 56    
Maximum Humidity 66    
Minimum Humidity 45    
Precipitation  
Precipitation T in 0.12 in 2.74 in (2015)
Month to date precipitation 2.22 3.30  
Year to date precipitation 31.20 29.45  
Sea Level Pressure  
Sea Level Pressure 30.30 in    
Wind  
Wind Speed 5 mph (SSE)    
Max Wind Speed 14 mph    
Max Gust Speed 17 mph    
Visibility 10 miles    
Events Rain    
T = Trace of Precipitation, MM = Missing Value Source: NWS Daily Summary

Daily Weather History Graph

Daily Weather History Graph

Search for Another Location

Airport or City:

Astronomy

Sep. 30, 2019 Rise Set
Actual Time 6:51 AM EDT 6:38 PM EDT
Civil Twilight 6:22 AM EDT 7:06 PM EDT
Nautical Twilight 5:50 AM EDT 7:39 PM EDT
Astronomical Twilight 5:16 AM EDT 8:12 PM EDT
Moon 8:53 AM EDT (9/30) 8:10 PM EDT (9/30)
Length of Visible Light 12h 43m
Length of Day
11h 47m
Waxing Crescent, 5% of the Moon is Illuminated
Sep 30
Waxing Crescent
Oct 5
First Quarter
Oct 13
Full
Oct 21
Last Quarter
Oct 27
New

Hourly Weather History & Observations

Time (EDT) Temp. Dew Point Humidity Pressure Visibility Wind Dir Wind Speed Gust Speed Precip Events Conditions
12:51 AM 53.1 °F 39.0 °F 59% 30.39 in 10.0 mi North 4.6 mph - N/A   Overcast
1:51 AM 52.0 °F 39.9 °F 63% 30.39 in 10.0 mi North 8.1 mph - N/A   Overcast
2:51 AM 52.0 °F 39.0 °F 61% 30.38 in 10.0 mi North 8.1 mph - N/A   Overcast
3:51 AM 50.0 °F 39.9 °F 68% 30.37 in 10.0 mi NNE 5.8 mph - N/A   Mostly Cloudy
4:51 AM 50.0 °F 39.9 °F 68% 30.38 in 10.0 mi North 4.6 mph - N/A   Mostly Cloudy
5:51 AM 50.0 °F 39.9 °F 68% 30.38 in 10.0 mi NNE 8.1 mph - N/A   Overcast
6:51 AM 50.0 °F 39.9 °F 68% 30.39 in 10.0 mi North 3.5 mph - N/A   Mostly Cloudy
7:51 AM 50.0 °F 39.9 °F 68% 30.39 in 10.0 mi Calm Calm - N/A   Mostly Cloudy
8:51 AM 54.0 °F 41.0 °F 62% 30.40 in 10.0 mi North 3.5 mph - N/A   Scattered Clouds
9:51 AM 55.9 °F 41.0 °F 57% 30.39 in 10.0 mi Calm Calm - N/A   Partly Cloudy
10:51 AM 60.1 °F 41.0 °F 49% 30.37 in 10.0 mi South 8.1 mph - N/A   Scattered Clouds
11:51 AM 62.1 °F 42.1 °F 48% 30.35 in 10.0 mi Calm Calm - N/A   Mostly Cloudy
12:51 PM 64.9 °F 44.1 °F 47% 30.32 in 10.0 mi Variable 4.6 mph - N/A   Mostly Cloudy
1:51 PM 66.9 °F 44.1 °F 44% 30.29 in 10.0 mi South 8.1 mph - N/A   Mostly Cloudy
2:51 PM 66.0 °F 46.0 °F 48% 30.27 in 10.0 mi South 8.1 mph - N/A   Mostly Cloudy
3:51 PM 64.9 °F 48.9 °F 56% 30.25 in 10.0 mi South 6.9 mph - 0.00 in Rain Light Rain
4:51 PM 66.0 °F 46.0 °F 48% 30.23 in 10.0 mi South 5.8 mph - 0.00 in   Mostly Cloudy
5:51 PM 64.9 °F 46.9 °F 52% 30.22 in 10.0 mi South 9.2 mph - N/A   Overcast
6:51 PM 64.0 °F 48.0 °F 56% 30.21 in 10.0 mi South 6.9 mph - N/A   Overcast
7:51 PM 63.0 °F 50.0 °F 63% 30.20 in 10.0 mi South 10.4 mph - 0.00 in Rain Light Rain
8:51 PM 60.1 °F 53.1 °F 78% 30.20 in 8.0 mi South 8.1 mph - 0.00 in Rain Light Rain
9:51 PM 59.0 °F 54.0 °F 83% 30.19 in 10.0 mi SSE 5.8 mph - 0.00 in Rain Light Rain
10:51 PM 60.1 °F 54.0 °F 80% 30.18 in 10.0 mi SSE 9.2 mph - 0.01 in Rain Light Rain
11:29 PM 60.1 °F 54.0 °F 80% 30.15 in 10.0 mi South 11.5 mph - 0.00 in   Overcast
11:51 PM 60.1 °F 54.0 °F 80% 30.14 in 10.0 mi SSE 10.4 mph 18.4 mph 0.00 in   Overcast